[ hide orbit diagram ]
For accurate long-term ephemerides, please instead use our Horizons system.This orbit viewer was implemented using two-body methods, and hence should not be used for determining accurate long-term trajectories (over several years or decades) or planetary encounter circumstances.
Orbital Elements at Epoch 2459000.5 (2020-May-31.0) TDB
Reference: JPL 9 (heliocentric ecliptic J2000)
Element | Value | Uncertainty (1-sigma) | Units |
e | .08781092300260231 | 8.0914e-08 | |
a | 2.795141628741169 | 3.7411e-08 | au |
q | 2.54969766239841 | 2.4168e-07 | au |
i | 3.817952780909569 | 8.1077e-06 | deg |
node | 212.3953018680509 | 0.00011916 | deg |
peri | 152.8064779839261 | 0.00012781 | deg |
M | 261.4448696895074 | 4.8537e-05 | deg |
tp | 2459467.783977645025 (2021-Sep-10.28397764) | 0.00023508 | TDB |
period | 1706.884577416049 4.67 | 3.4269e-05 9.382e-08 | d yr |
n | .2109105704997244 | 4.2344e-09 | deg/d |
Q | 3.040585595083928 | 4.0697e-08 | au |
|
| | Orbit Determination Parameters
Additional Information
|
[ show covariance matrix ]
Physical Parameter Table
Parameter |
Symbol |
Value |
Units |
Sigma |
Reference |
Notes |
absolute magnitude |
H |
17.23 |
|
n/a |
E2021B25 |
|
|
344498 (2002 QX114) Discovered 2002-Aug-28 by NEAT at Palomar |
Reference: 20121128/Numbers.arc | Last Updated: 2012-12-03 |
|
|